Location: Caltech
(34.1382°N, 118.1253°W)
Time: 21:31:32
(UTC-07:00)

Uosat F - Visible Passes

Search period start: 24 September 2017 00:00
Search period end: 04 October 2017 00:00
Orbit: 750 x 761 km, 98.8° (Epoch: 23 September)

Date Brightness Start Highest point End Pass type
(mag) Time Alt. Az. Time Alt. Az. Time Alt. Az.
24 Sep 11.1 19:03:13 10° SSE 19:08:10 69° ENE 19:13:09 10° N visible
24 Sep 14.3 20:46:33 10° W 20:47:20 10° W 20:48:06 10° W visible
25 Sep 13.1 20:03:15 10° SSW 20:07:31 28° W 20:11:49 10° NW visible
26 Sep 11.3 19:22:57 10° S 19:27:55 75° WSW 19:32:57 10° NNW visible
27 Sep 13.8 20:24:06 10° SW 20:27:26 18° W 20:30:46 10° NW visible
28 Sep 12.2 19:42:57 10° S 19:47:44 46° W 19:52:33 10° NNW visible
29 Sep 11.0 19:03:17 10° SSE 19:08:14 68° ENE 19:13:14 10° N visible
29 Sep 14.3 20:46:22 10° WSW 20:47:24 11° W 20:48:25 10° W visible
30 Sep 13.1 20:03:18 10° SSW 20:07:35 29° W 20:11:55 10° NW visible
01 Oct 11.3 19:23:00 10° S 19:28:00 76° WSW 19:33:01 10° NNW visible
02 Oct 13.8 20:24:08 10° SW 20:27:30 18° W 20:30:53 10° NW visible
03 Oct 12.1 19:43:00 10° S 19:47:48 47° W 19:52:38 10° NNW visible
